OK1LPD-6 Weather Reports


time (UTC)temp
F
wind
direction
speed
knots
gust
knots
rain 1hr
in
rain 24hr
in
rain mn
in
humidity
%
barometer
mb
20260507075518 64 0 0.0 0.0 0.00 0.21 0.20 60 1010.6
20260507074538 62 0 0.0 0.0 0.00 0.21 0.20 65 1010.6
20260507073518 61 0 0.0 0.0 0.00 0.21 0.20 66 1010.5
20260507072519 60 0 0.0 0.0 0.00 0.21 0.20 70 1010.5
20260507071540 60 0 0.0 0.0 0.00 0.21 0.20 70 1010.3
20260507070519 61 0 0.0 0.0 0.00 0.21 0.20 71 1010.3
20260507065519 60 0 0.0 0.0 0.00 0.21 0.20 71 1010.2
20260507064539 60 0 0.0 0.0 0.00 0.21 0.20 72 1010.2
20260507063520 60 0 0.0 0.0 0.00 0.21 0.20 73 1010.2
20260507062519 60 0 0.0 0.0 0.00 0.21 0.20 72 1010.1
20260507061541 61 0 0.0 0.0 0.00 0.21 0.20 71 1010.0
20260507060520 61 0 0.0 0.0 0.00 0.21 0.20 71 1009.7
20260507055519 63 0 0.0 0.0 0.00 0.21 0.20 70 1009.7
20260507054531 63 0 0.0 0.0 0.00 0.21 0.20 70 1009.6
20260507053520 64 135 0.0 0.9 0.00 0.21 0.20 70 1009.5
20260507052520 60 181 0.0 0.9 0.00 0.21 0.20 78 1009.5
20260507051532 59 0 0.0 0.0 0.00 0.21 0.20 81 1009.4
20260507050520 59 0 0.0 0.0 0.00 0.21 0.20 83 1009.4
20260507045521 59 0 0.0 0.0 0.00 0.21 0.20 91 1009.3
20260507044532 58 135 0.0 0.9 0.00 0.21 0.20 97 1009.1
20260507043520 56 22 0.0 0.9 0.00 0.21 0.20 98 1009.0
20260507042520 53 0 0.0 0.0 0.00 0.21 0.20 99 1008.9
20260507041532 52 0 0.0 0.0 0.00 0.21 0.20 99 1009.0
20260507040522 51 0 0.0 0.0 0.00 0.21 0.20 99 1009.0
20260507035520 51 0 0.0 0.0 0.00 0.21 0.20 99 1008.9
20260507034532 51 0 0.0 0.0 0.00 0.21 0.20 99 1008.6
20260507033522 51 0 0.0 0.0 0.00 0.21 0.20 99 1008.4
20260507032520 51 0 0.0 0.0 0.00 0.21 0.20 99 1008.4
20260507031534 51 0 0.0 0.0 0.00 0.21 0.20 99 1008.4
20260507030521 52 0 0.0 0.0 0.00 0.21 0.20 99 1008.4
20260507025521 52 0 0.0 0.0 0.00 0.21 0.20 99 1008.4
20260507024532 52 0 0.0 0.0 0.00 0.21 0.20 99 1008.4
20260507023521 52 0 0.0 0.0 0.00 0.21 0.20 99 1008.4
20260507022521 52 0 0.0 0.0 0.00 0.21 0.20 99 1008.3
20260507021540 52 0 0.0 0.0 0.00 0.21 0.20 99 1008.2
20260507020522 53 0 0.0 0.0 0.00 0.21 0.20 99 1008.3
20260507015522 53 0 0.0 0.0 0.00 0.21 0.20 99 1008.2
20260507014541 53 0 0.0 0.0 0.00 0.21 0.20 99 1008.3
20260507013521 53 0 0.0 0.0 0.00 0.21 0.20 99 1008.3
20260507012523 53 0 0.0 0.0 0.00 0.21 0.20 99 1008.0
20260507011543 53 0 0.0 0.0 0.00 0.21 0.20 99 1008.0
20260507010522 54 0 0.0 0.0 0.00 0.21 0.20 99 1007.9
20260507005522 54 0 0.0 0.0 0.00 0.21 0.20 99 1007.8
20260507004541 54 0 0.0 0.0 0.00 0.21 0.20 99 1007.6
20260507003522 54 0 0.0 0.0 0.00 0.21 0.20 99 1007.5
20260507002523 55 0 0.0 0.0 0.00 0.21 0.20 97 1007.5
20260507001543 55 0 0.0 0.0 0.00 0.21 0.20 97 1007.5
20260507000523 55 0 0.0 0.0 0.00 0.21 0.20 97 1007.4
20260506235523 56 0 0.0 0.0 0.00 0.21 0.20 97 1007.3
20260506234541 56 0 0.0 0.0 0.00 0.21 0.20 97 1007.3
20260506233523 56 0 0.0 0.0 0.00 0.21 0.20 97 1007.0
20260506232523 56 0 0.0 0.0 0.00 0.21 0.20 96 1006.9
20260506231544 56 0 0.0 0.0 0.00 0.21 0.20 96 1007.1
20260506230523 56 0 0.0 0.0 0.00 0.21 0.20 96 1007.3
20260506225523 57 0 0.0 0.0 0.00 0.21 0.20 96 1007.0
20260506224543 57 0 0.0 0.0 0.00 0.21 0.20 96 1006.7
20260506223523 57 0 0.0 0.0 0.00 0.21 0.20 96 1006.9
20260506222524 57 0 0.0 0.0 0.00 0.21 0.20 96 1007.1
20260506221545 57 0 0.0 0.0 0.00 0.21 0.20 95 1006.9
20260506220524 57 0 0.0 0.0 0.00 0.22 0.20 94 1007.0
20260506215524 57 0 0.0 0.0 0.00 0.24 0.20 94 1006.7
20260506214544 57 0 0.0 0.0 0.02 0.25 0.20 94 1006.7
20260506213525 57 0 0.0 0.0 0.05 0.26 0.20 93 1006.6
20260506212524 57 0 0.0 0.0 0.07 0.28 0.20 92 1006.3
20260506211546 58 0 0.0 0.0 0.08 0.31 0.20 92 1006.4
20260506210525 58 0 0.0 0.0 0.19 0.34 0.20 92 1006.5
20260506205525 58 0 0.0 0.0 0.19 0.35 0.20 93 1006.5
20260506204544 58 0 0.0 0.0 0.17 0.37 0.18 93 1006.5
20260506203525 58 0 0.0 0.0 0.14 0.39 0.15 93 1006.6
20260506202525 58 0 0.0 0.0 0.12 0.38 0.13 91 1006.8
20260506201547 59 0 0.0 0.0 0.11 0.37 0.12 89 1007.1
20260506200524 60 0 0.0 0.0 0.00 0.26 0.01 85 1006.7
20260506195525 60 0 0.0 0.0 0.00 0.26 0.01 85 1006.1
20260506194544 60 0 0.0 0.0 0.00 0.26 0.01 84 1005.6
20260506193525 61 0 0.0 0.0 0.00 0.26 0.01 82 1005.3
20260506192526 61 0 0.0 0.0 0.00 0.26 0.01 82 1005.5
20260506191547 61 0 0.0 0.0 0.00 0.26 0.01 82 1005.5
20260506190526 60 0 0.0 0.0 0.00 0.26 0.01 86 1005.3
20260506185525 60 0 0.0 0.0 0.00 0.26 0.01 86 1004.9
20260506184545 60 0 0.0 0.0 0.00 0.26 0.01 86 1004.9
20260506183525 60 0 0.0 0.0 0.00 0.26 0.01 85 1004.8
20260506182526 61 0 0.0 0.0 0.00 0.26 0.01 83 1004.7
20260506181546 62 0 0.0 0.0 0.00 0.26 0.01 81 1004.3
20260506180527 63 0 0.0 0.0 0.00 0.26 0.01 79 1004.3
20260506175526 63 0 0.0 0.0 0.00 0.26 0.01 78 1004.3
20260506174539 63 0 0.0 0.0 0.00 0.26 0.01 77 1004.3
20260506173526 64 0 0.0 0.0 0.00 0.26 0.01 74 1004.2
20260506172526 65 0 0.0 0.0 0.00 0.26 0.01 72 1004.2
20260506171538 67 0 0.0 0.0 0.00 0.26 0.01 70 1004.3
20260506170527 65 0 0.0 0.0 0.00 0.26 0.01 76 1004.2
20260506165527 64 0 0.0 0.0 0.00 0.26 0.01 76 1004.1
20260506164537 63 0 0.0 0.0 0.00 0.26 0.01 77 1004.1
20260506163527 64 0 0.0 0.0 0.00 0.26 0.01 72 1004.2
20260506162527 64 0 0.0 0.0 0.00 0.26 0.01 70 1004.5
20260506161539 64 0 0.0 0.0 0.01 0.26 0.01 69 1004.4
20260506160527 66 0 0.0 0.0 0.02 0.26 0.01 71 1004.5
20260506155527 66 0 0.0 0.0 0.02 0.26 0.01 71 1004.7
20260506154539 64 0 0.0 0.0 0.02 0.26 0.01 75 1004.5
20260506153527 62 0 0.0 0.0 0.02 0.26 0.01 78 1004.7
20260506152528 62 0 0.0 0.0 0.02 0.26 0.01 78 1005.0
20260506151551 62 0 0.0 0.0 0.01 0.25 0.00 74 1004.9
20260506150528 64 0 0.0 0.0 0.00 0.24 0.24 63 1005.0
20260506145528 65 0 0.0 0.0 0.00 0.24 0.24 63 1004.9
20260506144547 66 0 0.0 0.0 0.00 0.24 0.24 58 1004.9
20260506143529 68 0 0.0 0.0 0.00 0.24 0.24 55 1005.2
20260506142529 70 0 0.0 0.0 0.00 0.24 0.24 54 1005.2
20260506141549 71 0 0.0 0.0 0.00 0.24 0.24 51 1005.0
20260506140528 73 0 0.0 0.0 0.00 0.24 0.24 42 1004.9
20260506135529 73 0 0.0 0.0 0.00 0.24 0.24 41 1005.0
20260506134547 73 0 0.0 0.0 0.00 0.24 0.24 40 1004.9
20260506133529 74 0 0.0 0.0 0.00 0.24 0.24 41 1005.1
20260506132529 74 0 0.0 0.0 0.00 0.24 0.24 41 1005.1
20260506131550 75 0 0.0 0.0 0.00 0.24 0.24 40 1005.1
20260506130529 76 314 0.0 0.9 0.00 0.24 0.24 39 1005.2
20260506125529 77 314 0.0 0.9 0.00 0.24 0.24 37 1005.3
20260506124548 77 0 0.0 0.0 0.00 0.24 0.24 40 1005.6
20260506123530 73 0 0.0 0.0 0.00 0.24 0.24 41 1005.6
20260506122530 75 0 0.0 0.0 0.00 0.24 0.24 41 1005.8
20260506121550 76 0 0.0 0.0 0.00 0.24 0.24 41 1006.0
20260506120529 73 0 0.0 0.0 0.00 0.24 0.24 43 1006.1
20260506115529 74 0 0.0 0.0 0.00 0.24 0.24 43 1006.2
20260506114549 74 0 0.0 0.0 0.00 0.24 0.24 43 1006.2
20260506113529 76 0 0.0 0.0 0.00 0.24 0.24 44 1006.1
20260506112530 74 0 0.0 0.0 0.00 0.24 0.24 43 1006.2
20260506111551 75 0 0.0 0.0 0.00 0.24 0.24 44 1006.4
20260506110530 74 0 0.0 0.0 0.00 0.24 0.24 45 1006.5
20260506105531 74 0 0.0 0.0 0.00 0.24 0.24 45 1006.5
20260506104549 73 0 0.0 0.0 0.00 0.24 0.24 46 1006.7
20260506103531 72 0 0.0 0.0 0.00 0.24 0.24 50 1006.7
20260506102531 72 0 0.0 0.0 0.00 0.24 0.24 50 1006.9
20260506101551 72 127 0.0 0.9 0.00 0.24 0.24 50 1006.7
20260506100531 70 0 0.0 0.0 0.00 0.24 0.24 51 1006.9
20260506095531 70 0 0.0 0.0 0.00 0.24 0.24 51 1007.0
20260506094550 70 0 0.0 0.0 0.00 0.24 0.24 50 1007.0
20260506093531 71 0 0.0 0.0 0.00 0.24 0.24 52 1007.0
20260506092531 69 0 0.0 0.0 0.00 0.24 0.24 53 1007.0
20260506091552 68 181 0.0 0.9 0.00 0.24 0.24 53 1007.0
20260506090531 68 0 0.0 0.0 0.00 0.24 0.24 54 1007.0
20260506085531 69 0 0.0 0.0 0.00 0.24 0.24 54 1007.2
20260506084551 68 0 0.0 0.0 0.00 0.24 0.24 57 1007.2
20260506083532 66 0 0.0 0.0 0.00 0.24 0.24 60 1007.2
20260506082531 67 0 0.0 0.0 0.00 0.24 0.24 58 1007.1
20260506081554 67 0 0.0 0.0 0.00 0.24 0.24 60 1007.1
20260506080532 65 0 0.0 0.0 0.00 0.24 0.24 61 1007.2